TimeEDT,TemperatureF,Dew PointF,Humidity,Sea Level PressureIn,VisibilityMPH,Wind Direction,Wind SpeedMPH,Gust SpeedMPH,PrecipitationIn,Events,Conditions,WindDirDegrees,DateUTC
12:05 AM,53.6,51.8,94,29.95,3.0,ENE,3.5,-,N/A,,Overcast,70,2013-05-23 04:05:00
12:54 AM,54.0,51.1,90,29.94,7.0,ENE,3.5,-,0.01,,Overcast,70,2013-05-23 04:54:00
1:54 AM,54.0,51.1,90,29.94,2.0,Calm,Calm,-,N/A,,Overcast,0,2013-05-23 05:54:00
2:40 AM,53.6,51.8,94,29.93,1.5,NNE,3.5,-,N/A,,Overcast,20,2013-05-23 06:40:00
2:54 AM,53.1,51.1,93,29.91,1.8,ENE,4.6,-,N/A,,Overcast,70,2013-05-23 06:54:00
3:13 AM,53.6,51.8,94,29.91,2.0,East,3.5,-,N/A,,Overcast,100,2013-05-23 07:13:00
3:40 AM,53.6,51.8,94,29.90,3.0,East,3.5,-,N/A,,Overcast,80,2013-05-23 07:40:00
3:52 AM,53.6,51.8,94,29.91,2.0,NE,3.5,-,N/A,,Overcast,50,2013-05-23 07:52:00
3:54 AM,53.1,51.1,93,29.91,2.0,NE,3.5,-,N/A,,Overcast,50,2013-05-23 07:54:00
4:25 AM,53.6,51.8,94,29.90,3.0,Calm,Calm,-,N/A,,Overcast,0,2013-05-23 08:25:00
4:54 AM,53.1,51.1,93,29.90,2.5,ESE,3.5,-,N/A,,Overcast,120,2013-05-23 08:54:00
5:08 AM,53.6,51.8,94,29.91,1.8,Calm,Calm,-,N/A,,Overcast,0,2013-05-23 09:08:00
5:54 AM,53.1,51.1,93,29.91,1.0,Calm,Calm,-,N/A,,Overcast,0,2013-05-23 09:54:00
6:54 AM,54.0,51.1,90,29.93,1.2,NNE,3.5,-,N/A,,Overcast,30,2013-05-23 10:54:00
7:54 AM,55.0,53.1,93,29.92,2.0,ENE,3.5,-,0.01,,Overcast,60,2013-05-23 11:54:00
8:14 AM,55.4,53.6,94,29.92,3.0,NE,3.5,-,N/A,,Overcast,50,2013-05-23 12:14:00
8:36 AM,55.4,53.6,94,29.92,2.0,Calm,Calm,-,N/A,,Overcast,0,2013-05-23 12:36:00
8:54 AM,55.9,54.0,93,29.93,2.0,Calm,Calm,-,0.00,Rain,Light Rain,0,2013-05-23 12:54:00
9:07 AM,55.4,53.6,94,29.92,0.8,Calm,Calm,-,0.00,,Overcast,0,2013-05-23 13:07:00
9:22 AM,57.2,53.6,88,29.92,1.0,Calm,Calm,-,0.00,,Overcast,0,2013-05-23 13:22:00
9:30 AM,55.4,53.6,94,29.92,0.8,Calm,Calm,-,0.00,Rain,Light Rain,0,2013-05-23 13:30:00
9:51 AM,57.2,53.6,88,29.92,0.5,Calm,Calm,-,0.00,Fog,Fog,0,2013-05-23 13:51:00
9:54 AM,57.0,54.0,89,29.92,0.5,Calm,Calm,-,0.00,Fog,Fog,0,2013-05-23 13:54:00
10:15 AM,57.2,55.4,94,29.92,1.0,Calm,Calm,-,N/A,,Overcast,0,2013-05-23 14:15:00
10:43 AM,59.0,57.2,94,29.91,1.8,Calm,Calm,-,N/A,Thunderstorm,Overcast,0,2013-05-23 14:43:00
10:49 AM,60.8,57.2,88,29.91,3.0,SE,3.5,-,N/A,Thunderstorm,Overcast,130,2013-05-23 14:49:00
10:50 AM,60.1,57.0,90,29.91,3.0,Calm,Calm,-,N/A,Thunderstorm,Overcast,0,2013-05-23 14:50:00
10:58 AM,60.8,57.2,88,29.91,5.0,Calm,Calm,-,N/A,,Overcast,0,2013-05-23 14:58:00
11:49 AM,66.2,62.6,88,29.90,9.0,SSW,4.6,-,N/A,,Overcast,210,2013-05-23 15:49:00
11:54 AM,68.0,62.1,81,29.91,9.0,SSW,8.1,-,N/A,,Overcast,210,2013-05-23 15:54:00
12:13 PM,69.8,62.6,78,29.90,8.0,SSW,10.4,-,N/A,,Overcast,210,2013-05-23 16:13:00
12:35 PM,71.6,64.4,78,29.89,9.0,SSW,8.1,16.1,N/A,,Mostly Cloudy,210,2013-05-23 16:35:00
12:54 PM,72.0,64.9,78,29.88,10.0,Variable,6.9,-,N/A,,Partly Cloudy,0,2013-05-23 16:54:00
1:54 PM,75.9,66.9,74,29.86,10.0,SSW,11.5,17.3,0.00,,Partly Cloudy,200,2013-05-23 17:54:00
2:24 PM,77.0,66.2,69,29.86,10.0,SW,15.0,19.6,N/A,,Mostly Cloudy,220,2013-05-23 18:24:00
2:54 PM,77.0,66.0,69,29.86,10.0,SSW,15.0,24.2,N/A,,Overcast,210,2013-05-23 18:54:00
3:49 PM,75.2,64.4,69,29.86,10.0,SSW,13.8,-,N/A,,Overcast,210,2013-05-23 19:49:00
3:54 PM,75.9,64.9,69,29.86,10.0,SSW,10.4,19.6,N/A,,Overcast,200,2013-05-23 19:54:00
4:07 PM,75.2,64.4,69,29.86,10.0,SSW,17.3,25.3,N/A,,Overcast,210,2013-05-23 20:07:00
4:54 PM,75.0,64.9,71,29.85,10.0,SW,12.7,18.4,N/A,,Overcast,220,2013-05-23 20:54:00
5:01 PM,75.2,64.4,69,29.86,10.0,SSW,10.4,18.4,N/A,,Mostly Cloudy,210,2013-05-23 21:01:00
5:54 PM,75.0,64.0,69,29.85,10.0,SSW,8.1,18.4,N/A,,Overcast,200,2013-05-23 21:54:00
6:54 PM,73.9,64.0,71,29.85,10.0,SSW,17.3,26.5,0.00,,Overcast,210,2013-05-23 22:54:00
7:54 PM,73.0,63.0,71,29.86,10.0,SSW,11.5,24.2,N/A,,Partly Cloudy,210,2013-05-23 23:54:00
8:50 PM,71.6,62.6,73,29.85,10.0,SSW,10.4,16.1,N/A,,Mostly Cloudy,200,2013-05-24 00:50:00
8:54 PM,72.0,63.0,73,29.86,10.0,SSW,11.5,18.4,N/A,,Mostly Cloudy,200,2013-05-24 00:54:00
9:54 PM,70.0,63.0,78,29.84,10.0,South,8.1,-,N/A,,Overcast,190,2013-05-24 01:54:00
10:44 PM,68.0,62.6,83,29.84,7.0,South,12.7,23.0,0.00,Rain,Light Rain,190,2013-05-24 02:44:00
10:54 PM,68.0,63.0,84,29.83,7.0,South,8.1,23.0,0.01,Rain,Light Rain,190,2013-05-24 02:54:00
11:19 PM,66.2,62.6,88,29.83,10.0,SSW,9.2,16.1,0.01,Rain,Light Rain,200,2013-05-24 03:19:00
11:54 PM,66.9,63.0,87,29.82,3.0,South,9.2,19.6,0.07,Rain,Rain,190,2013-05-24 03:54:00